Location: Unspecified
(29.9680°N, 0.0000°E)
Time: 01:02:46
(UTC+00:00)

A-11 Canister half - Pass Details

Date: 25 June 2019
Orbit: 1527 x 1682 km, 47.3° (Epoch: 13 October)

Event Time Altitude Azimuth Distance (km) Brightness Sun altitude
Rises 01:35:08 0° 207° (SSW) 4,829 - -32.2°
Reaches altitude 10° 01:38:26 10° 202° (SSW) 3,823 - -31.9°
Exits shadow 01:46:16 46° 153° (SSE) 2,035 9.3 -31.1°
Maximum altitude 01:47:35 48° 131° (SE) 1,975 9.4 -31.0°
Drops below altitude 10° 01:56:27 10° 61° (ENE) 3,726 11.7 -30.0°
Sets 01:59:36 0° 56° (NE) 4,698 12.5 -29.7°
